User: anonymous   Login
Location: Ostrava
(49.8330°N, 18.2830°E)
Time: 00:10:48
(UTC+02:00)
Language:

Iridium 7 - Orbit

View from above orbital plane
View from above orbital plane
View from above satellite
View from above satellite

Ground track
Ground track

The orbit data is extracted from the following two-line orbital elements,

1 24793U 97020B   16240.22574707 -.00000040  00000-0 -21273-4 0  9995
2 24793  86.3926  81.8639 0002054  82.4755 277.6674 14.34217431 11065
Epoch (UTC): 27 August 2016 05:25:04
Eccentricity: 0.0002054
inclination: 86.3926°
perigee height: 776 km
apogee height: 779 km
right ascension of ascending node: 81.8639°
argument of perigee: 82.4755°
revolutions per day: 14.34217431
mean anomaly at epoch: 277.6674°
orbit number at epoch: 1106

The dashed part of the orbit path shows where the satellite is in the earth's shadow,  

DLR